Home   Weather   Vaughan   Past weeks

Flag for Canada Past Weather in Vaughan, Ontario, Canada — Yesterday and Last 2 Weeks

45 °F

Light rain. Overcast.

Feels Like: 37 °F
Forecast: 42 / 52 °F
Wind: 16 mph from Northwest

Location: Toronto Buttonville

Current Time: Oct 21, 2016 at 4:14:28 PM

Latest Report: Oct 21, 2016 at 3:00 PM

Visibility: 15 mi

Pressure: 29.90 "Hg

Humidity: 87%

Dew Point: 41 °F

Location of VaughanLocation

Past Weather in Vaughan — Graph


Vaughan Temperature Yesterday

Maximum temperature yesterday: 57 °F (at 7:48 AM)
Minimum temperature yesterday: 52 °F (at 1:00 AM)
Average temperature yesterday: 54 °F

High & Low Weather Summary for the Past Weeks

High75 °F (Oct 6, 3:00 PM)100% (Oct 7, 2:00 AM)30.50 "Hg (Oct 7, 2:00 AM)
Low32 °F (Oct 10, 7:00 AM)36% (Oct 10, 5:00 PM)29.54 "Hg (Oct 18, 2:00 PM)
Average56 °F78%30.09 "Hg
* Reported Oct 6 2:00 PM — Oct 21 2:00 PM, Vaughan, Weather by CustomWeather, © 2016

Note: Actual official high and low records may vary slightly from our data, if they occured in-between our weather recording intervals... More about our weather records


Vaughan Weather History for the Previous 24 Hours

Scroll right to see more
Time TempWeatherWind HumidityBarometerVisibility
2:00 PM
Fri, Oct 21
46 °FLight rain. Overcast.18 mph82%29.89 "Hg12 mi
1:00 PM46 °FLight rain. Overcast.16 mph87%29.90 "Hg12 mi
12:00 PM46 °FLight rain. More clouds than sun.13 mph87%29.90 "Hg12 mi
11:00 AM46 °FLight rain. More clouds than sun.17 mph87%29.91 "Hg12 mi
10:00 AM48 °FLight rain. More clouds than sun.14 mph87%29.91 "Hg8 mi
9:00 AM48 °FLight rain. More clouds than sun.10 mph94%29.92 "Hg8 mi
8:00 AM50 °FLight rain. Mostly cloudy.14 mph94%29.90 "Hg8 mi
7:00 AM50 °FPassing clouds.9 mph94%29.90 "Hg15 mi
6:00 AM50 °FOvercast.8 mph94%29.91 "Hg15 mi
5:00 AM52 °FLight rain. Overcast.12 mph88%29.91 "Hg15 mi
3:00 AM52 °FLight rain. Overcast.9 mph88%29.95 "Hg15 mi
2:00 AM52 °FLight rain. Overcast.9 mph88%29.95 "Hg15 mi
1:00 AM52 °FLight rain. Overcast.7 mph88%29.96 "Hg12 mi
12:00 AM52 °FOvercast.7 mph88%29.96 "Hg15 mi
11:00 PM
Thu, Oct 20
52 °FLight rain. Overcast.8 mph88%29.97 "Hg15 mi
10:56 PM52 °FLight rain. Overcast.8 mph88%29.97 "Hg15 mi
10:00 PM52 °FOvercast.8 mph94%29.99 "Hg15 mi
9:54 PM52 °FOvercast.7 mph94%29.99 "Hg15 mi
9:00 PM52 °FLight rain. Mostly cloudy.6 mph94%30.01 "Hg10 mi
8:00 PM52 °FLight rain. Low clouds.9 mph94%30.02 "Hg10 mi
7:00 PM52 °FLight rain. Overcast.7 mph94%30.01 "Hg10 mi
6:00 PM52 °FLight rain. Mostly cloudy.6 mph94%30.01 "Hg13 mi
5:00 PM52 °FLight rain. More clouds than sun.7 mph94%30.03 "Hg7 mi
4:00 PM52 °FLight rain. Mostly cloudy.6 mph94%30.04 "Hg12 mi
Weather by CustomWeather, © 2016

See weather overviewHow to use our weather pages